Regional Weather Roundup
Issued by NWS

Home | Current Version | Previous Version | Graphics & Text | Print | Product List | Glossary On
Versions: 1 2 3 4 5 6 7 8 9 10 11 12 13 14 15 16 17 18 19 20 21 22 23 24 25 26 27 28 29 30 31 32 33 34 35 36 37 38 39 40 41 42 43 44 45 46 47 48 49 50
000
ASUS45 KABQ 040910
RWRNM
WEATHER ROUNDUP FOR NEW MEXICO
NATIONAL WEATHER SERVICE ALBUQUERQUE NM
300 AM MDT MON MAY 04 2015

NOTE: "FAIR" MEANS FEW OR NO CLOUDS BELOW 12,000 FEET AGL WITH NO
       SIGNIFICANT WEATHER OR OBSTRUCTIONS TO VISION.

      THIS PRODUCT IS RELEASED AS TWO VERSIONS.  ONE VERSION NEAR
      THE TOP OF THE HOUR CONTAINING PRELIMINARY DATA FROM ALBUQUERQUE
      AND OTHER STATIONS.  A FINAL VERSION WITH ADDITIONAL DATA IS
      ISSUED ABOUT 10 MINUTES AFTER THE HOUR.

NMZ501-503-504-510>518-041000-
NORTHWEST PLATEAU/NORTHCENTRAL MOUNTAINS

CITY           SKY/WX    TMP DP  RH WIND       PRES   REMARKS
FARMINGTON     MOCLDY    54  39  57 SE7       30.02F
LOS ALAMOS     CLOUDY    52  36  55 CALM      30.11S
SANTA FE       LGT RAIN  52  40  63 NE8       30.08R
TAOS           PTCLDY    39  28  65 NE3       30.11S
ANGEL FIRE     CLOUDY    37  36  94 SE6       30.18S WCI  32

$$
NMZ402-403-502-505>509-041000-
WESTCENTRAL MOUNTAINS/SOUTHWEST MOUNTAINS

CITY           SKY/WX    TMP DP  RH WIND       PRES   REMARKS
GALLUP         CLOUDY    50  40  68 SW7       30.07S
GRANTS         MOCLDY    47  38  70 CALM      30.08S
SILVER CITY      N/A     57  36  44 NW3       30.00S

$$
NMZ407-409-411-412-041000-
SOUTHERN DESERTS

CITY           SKY/WX    TMP DP  RH WIND       PRES   REMARKS
LORDSBURG      FAIR      64  36  34 W7        29.93R
DEMING         PTCLDY    55  36  48 NE6       29.94R
LAS CRUCES     MOCLDY    63  45  51 E9        29.95S
HOLLOMAN AFB   DRIZZLE   61  53  73 E12       29.97R
ALAMOGORDO     LGT RAIN  63  48  59 SE12G17   30.00S
T OR C         MOCLDY    62  35  36 NW3       29.96S

$$
NMZ519>523-041000-
CENTRAL VALLEYS/CENTRAL HIGHLANDS

CITY           SKY/WX    TMP DP  RH WIND       PRES   REMARKS
ALBUQUERQUE    CLOUDY    60  38  43 N7        30.01F
DOUBLE EAGLE   CLOUDY    56  39  52 N7        30.04R
MORIARTY ARPT  CLOUDY    50  37  60 W3        30.07S
CLINES CORNERS MOCLDY    53  36  52 E10       30.07F
BELEN          PTSUNNY   57  38  48 NE10      29.99F
SOCORRO        FAIR      62  35  36 NW7       29.97S

$$
NMZ524>526-539-540-041000-
SOUTHCENTRAL MOUNTAINS

CITY           SKY/WX    TMP DP  RH WIND       PRES   REMARKS
RUIDOSO        MOCLDY    54  32  43 S9        30.07F

$$
NMZ527>531-041000-
NORTHEAST HIGHLANDS/NORTHEAST PLAINS

CITY           SKY/WX    TMP DP  RH WIND       PRES   REMARKS
LAS VEGAS      CLOUDY    47  37  68 NW6       30.11S
RATON          PTCLDY    50  41  71 N12       30.07S
CLAYTON        MOCLDY    53  47  79 W6        30.01F

$$
NMZ532>537-041000-
EASTCENTRAL PLAINS

CITY           SKY/WX    TMP DP  RH WIND       PRES   REMARKS
TUCUMCARI        N/A     57  49  74 SE8       29.96F
CANNON AFB     MOCLDY    57  52  84 E5        29.99F
CLOVIS AIRPORT MOCLDY    59  50  72 SW3       29.99F

$$
NMZ028-029-538-041000-
SOUTHEAST PLAINS

CITY           SKY/WX    TMP DP  RH WIND       PRES   REMARKS
ROSWELL        CLEAR     58  46  64 SE7       29.91F
ARTESIA        CLEAR     59  48  67 E3        29.91F
CARLSBAD       PTCLDY    61  50  67 S8        29.87F
HOBBS          CLEAR     57  57 100 CALM      29.96F


$$


USA.gov is the U.S. government's official web portal to all federal, state and local government web resources and services.